Location: Newark
(40.9833°N, 0.0333°W)
Time: 01:34:07
(UTC+00:00)

deb Explorer IX - Pass Details

Date: 01 November 2020
Orbit: 537 x 1105 km, 38.8° (Epoch: 02 December)

Event Time Altitude Azimuth Distance (km) Brightness Sun altitude
Rises 05:23:47 0° 258° (WSW) 3,238 - -13.2°
Reaches altitude 10° 05:26:05 10° 256° (WSW) 2,395 - -12.8°
Exits shadow 05:26:53 15° 255° (WSW) 2,117 ? -12.6°
Maximum altitude 05:31:49 71° 173° (S) 959 ? -11.7°
Drops below altitude 10° 05:38:31 10° 91° (E) 2,787 ? -10.5°
Sets 05:41:23 0° 90° (E) 3,803 ? -9.9°
